Regional Weather Roundup
Issued by NWS

Home | Current Version | Previous Version | Graphics & Text | Print | Product List | Glossary On
Versions: 1 2 3 4 5 6 7 8 9 10 11 12 13 14 15 16 17 18 19 20 21 22 23 24 25 26 27 28 29 30 31 32 33 34 35 36 37 38 39 40 41 42 43 44 45 46 47 48 49 50
000
ASUS45 KBOU 291507
RWRCO

WEATHER ROUNDUP FOR COLORADO
NATIONAL WEATHER SERVICE DENVER/BOULDER CO
900 AM MDT TUE JUL 29 2014

NOTE: "FAIR" INDICATES FEW OR NO CLOUDS BELOW 12000 FEET WITH NO
SIGNIFICANT WEATHER AND/OR OBSTRUCTIONS TO VISIBILITY.

COZ001>005-013-030-031-291600-
...NORTHWEST COLORADO...

CITY           SKY/WX    TMP DP  RH WIND       PRES   REMARKS
CRAIG          CLOUDY    60  57  89 SW7       30.35S
HAYDEN         CLOUDY    63  50  63 CALM      30.36S
MEEKER         CLOUDY    63  54  72 E6        30.36S
MOUNT WERNER   NOT AVBL
STEAMBOAT SPGS PTSUNNY   63  51  65 CALM      30.37F
WALDEN         PTSUNNY   55  45  67 CALM      30.44S
$$

COZ006>008-011-291600-
...WEST CENTRAL VALLEYS...

CITY           SKY/WX    TMP DP  RH WIND       PRES   REMARKS
GRAND JUNCTION CLOUDY    65  60  84 SE7       30.29R
MONTROSE       PTSUNNY   63  60  90 N6        30.36R
EAGLE          CLOUDY    59  54  82 CALM      30.40S
RIFLE          LGT RAIN  63  60  90 E3        30.33S
DELTA          CLOUDY    66  61  83 NW3       30.33S
NUCLA          PTSUNNY   63  59  88 N5        30.39S
$$

COZ017>023-064>068-291600-
...SOUTHWEST COLORADO...

CITY           SKY/WX    TMP DP  RH WIND       PRES   REMARKS
DURANGO        CLOUDY    63  56  78 CALM      30.39R
CORTEZ         CLOUDY    63  61  93 CALM      30.35S
PAGOSA SPRINGS CLOUDY    63  51  65 CALM      30.46R
TELLURIDE      CLOUDY    54  52  94 CALM      30.53S
WOLF CREEK PAS NOT AVBL
$$

COZ009-010-012-014-032>034-037-058>063-291600-
...CENTRAL COLORADO...

CITY           SKY/WX    TMP DP  RH WIND       PRES   REMARKS
ASPEN          CLOUDY    56  52  86 CALM      30.44S
BUENA VISTA    CLOUDY    57  52  83 CALM      30.45S
COPPER MTN     CLOUDY    48  41  76 W10       30.69S
BERTHOUD PASS  CLOUDY    43  30  61 MISG      30.75S
COTTONWOOD PAS CLOUDY    55  50  82 CALM      30.56S
GUNNISON       CLOUDY    59  52  77 E5        30.48S
KREMMLING      PTSUNNY   59  45  58 CALM      30.43S
LEADVILLE      CLOUDY    49  46  90 N3        30.55R
MONARCH PASS   FOG       43  43 100 W16G24    30.79S VSB<1/4
SALIDA         PTSUNNY   62  55  78 N6        30.48F
SUNLIGHT       CLOUDY    50  50 100 CALM      30.64S
WILKERSON PASS CLOUDY    50  43  76 SE7       30.67S
$$

COZ069>075-291600-
...SAN LUIS VALLEY/SANGRE DE CRISTO MOUNTAINS...

CITY           SKY/WX    TMP DP  RH WIND       PRES   REMARKS
ALAMOSA        CLOUDY    56  54  93 CALM      30.45R
LA VETA PASS   DRZL/FOG  48  46  93 SW5       30.58R VSB 1/4
SAGUACHE       PTSUNNY   57  52  82 W5        30.47S
$$

COZ035-036-038>040-291600-
...NORTHERN COLORADO FRONT RANGE...

CITY           SKY/WX    TMP DP  RH WIND       PRES   REMARKS
DENVER INTL AP PTSUNNY   70  58  65 W8        30.26S
DMNS CITY PARK   N/A     73  57  57 N2        30.26S
AURORA         PTSUNNY   68  57  68 W6        30.29S
FRONT RANGE AP PTSUNNY   72  59  64 W8        30.28
ERIE MUNI ARPT PTSUNNY   70  57  65 N3        30.25S
BOULDER MUN AP PTSUNNY   73  54  49 N6        30.25F
CENTENNIAL     PTSUNNY   69  55  60 NW7       30.29F
BROOMFIELD     PTSUNNY   72  57  60 N6        30.28S
FORT COLLINS   MOSUNNY   72  57  60 N9        30.26S
LONGMONT       MOSUNNY   76  57  52 NE5       30.26S
$$

COZ041-046-047-076>085-087-088-291600-
...PIKES PEAK/PALMER DIVIDE AND SOUTHERN FOOTHILLS...

CITY           SKY/WX    TMP DP  RH WIND       PRES   REMARKS
COLO. SPRINGS  PTSUNNY   68  58  70 CALM      30.33S
A. F. ACADEMY  MOSUNNY   65  57  73 CALM      30.34S
ELLICOTT       MOSUNNY   67  61  81 SE6       30.31S
FALCON         MOSUNNY   67  58  72 S5        30.38S
FORT CARSON    CLOUDY    67  60  77 NE3       30.30F
LIMON          SUNNY     67  60  78 S6        30.28S
MONUMENT HILL  MOSUNNY   66  54  63 CALM      30.36S
TRINIDAD       CLOUDY    68  59  73 SW9       30.30S
$$

COZ042>045-048>051-090-091-291600-
...NORTHEAST COLORADO...

CITY           SKY/WX    TMP DP  RH WIND       PRES   REMARKS
GREELEY ARPT   MOSUNNY   66  55  68 N5        30.25R
AKRON          SUNNY     73  58  59 SE9       30.24S
BURLINGTON     SUNNY     69  62  78 S12       30.23S
WRAY             N/A     71  60  66 E5        30.23S
STERLING       SUNNY     70  63  78 NE8       30.22R
HOLYOKE        SUNNY     72  61  68 SE9       30.24S
FORT MORGAN    SUNNY     73  58  61 E7        30.24S
$$

COZ086-089-092>099-291600-
...SOUTHEAST COLORADO...

CITY           SKY/WX    TMP DP  RH WIND       PRES   REMARKS
PUEBLO         MOSUNNY   67  63  87 CALM      30.24S
LA JUNTA       CLOUDY    71  62  73 W5        30.21R
LAMAR          PTSUNNY   75  64  68 S12       30.17S
SPRINGFIELD      N/A     72  64  76 S18G25    30.23F
$$


USA.gov is the U.S. government's official web portal to all federal, state and local government web resources and services.